Terminal Aerodrome Forecast
Issued by NWS Cleveland, OH

Home | Current Version | Previous Version | Text Only | Print | Product List | Glossary Off
Versions: 1 2 3 4 5 6 7 8 9 10 11 12 13 14 15 16 17 18 19 20 21

000
FTUS41 KCLE 272214 AAB
TAFCAK
TAF AMD
KCAK 272214Z 2722/2818 22012KT P6SM SCT005 OVC025
     FM280300 24012G20KT 3SM -SHRA BR OVC003
     FM281200 30012KT 4SM BR VCSH BKN006 OVC012=

USA.gov is the U.S. government's official web portal to all federal, state and local government web resources and services.